GW4964 Weather Reports


Display with metric or nautical units.
time (UTC)temp
F
wind
direction
speed
MPH
gust
MPH
rain 1hr
in
rain 24hr
in
rain mn
in
humidity
%
barometer
mb
20260510053703 58 315 1.0 4.0 0.00 0.02 0.00 64 1010.7
20260510053203 58 332 2.0 5.0 0.00 0.02 0.00 64 1010.7
20260510052703 58 319 3.0 6.0 0.00 0.02 0.00 63 1010.6
20260510052203 58 300 2.0 6.0 0.00 0.02 0.00 64 1010.5
20260510051203 57 278 1.0 3.0 0.00 0.02 0.00 66 1010.7
20260510050703 57 310 2.0 3.0 0.00 0.02 0.00 66 1010.8
20260510050203 57 321 2.0 4.0 0.00 0.02 0.00 66 1010.8
20260510045703 57 314 2.0 4.0 0.00 0.02 0.00 66 1010.8
20260510045204 57 284 1.0 3.0 0.00 0.02 0.00 66 1010.9
20260510044704 57 290 2.0 4.0 0.00 0.02 0.00 66 1010.9
20260510044204 58 289 2.0 4.0 0.00 0.02 0.00 66 1010.9
20260510043704 58 331 2.0 5.0 0.00 0.02 0.00 66 1010.9
20260510043200 58 315 2.0 5.0 0.00 0.02 0.00 66 1010.9
20260510042658 58 293 2.0 3.0 0.00 0.02 0.00 66 1011.0
20260510042418 57 282 1.0 3.0 0.00 0.02 0.00 66 1011.0
20260510041658 57 310 1.0 4.0 0.00 0.02 0.00 67 1011.0
20260510041159 57 306 1.0 4.0 0.00 0.02 0.00 67 1011.0
20260510040658 57 301 1.0 5.0 0.00 0.02 0.00 69 1011.0
20260510040422 57 309 2.0 5.0 0.00 0.02 0.00 69 1010.9
20260510035658 57 323 1.0 3.0 0.00 0.02 0.02 70 1011.0
20260510035158 57 289 1.0 3.0 0.00 0.02 0.02 70 1011.0
20260510034658 58 300 1.0 2.0 0.00 0.02 0.02 69 1011.0
20260510034158 58 337 1.0 2.0 0.00 0.02 0.02 69 1011.1
20260510033658 58 339 1.0 3.0 0.00 0.02 0.02 68 1011.1
20260510033416 58 323 1.0 3.0 0.00 0.02 0.02 67 1011.1
20260510032656 58 282 1.0 3.0 0.00 0.02 0.02 68 1011.1
20260510032156 58 329 1.0 2.0 0.00 0.02 0.02 67 1011.0
20260510031656 58 309 1.0 3.0 0.00 0.02 0.02 69 1010.9
20260510031425 58 319 1.0 3.0 0.00 0.02 0.02 70 1011.0
20260510030655 58 0 1.0 2.0 0.00 0.02 0.02 70 1010.9
20260510030411 58 358 1.0 3.0 0.00 0.02 0.02 70 1010.9
20260510025155 57 0 1.0 2.0 0.00 0.02 0.02 71 1010.8
20260510024653 57 232 1.0 3.0 0.00 0.02 0.02 74 1010.7
20260510024153 58 0 1.0 3.0 0.00 0.02 0.02 75 1010.7
20260510023653 58 312 1.0 3.0 0.00 0.02 0.02 73 1010.7
20260510023154 58 0 1.0 3.0 0.00 0.02 0.02 72 1010.5
20260510022654 58 350 1.0 2.0 0.00 0.02 0.02 72 1010.5
20260510022418 58 348 0.0 2.0 0.00 0.02 0.02 73 1010.5
20260510021653 58 0 0.0 2.0 0.00 0.02 0.02 73 1010.4
20260510021153 59 0 0.0 2.0 0.00 0.02 0.02 72 1010.3
20260510020915 60 18 0.0 3.0 0.00 0.02 0.02 72 1010.3
20260510020154 60 355 1.0 3.0 0.00 0.02 0.02 71 1010.2
20260510015651 60 245 1.0 3.0 0.00 0.02 0.02 70 1010.0
20260510015150 60 310 1.0 3.0 0.00 0.02 0.02 72 1009.9
20260510014650 60 328 1.0 3.0 0.00 0.02 0.02 73 1009.9
20260510014149 60 334 1.0 3.0 0.00 0.02 0.02 73 1009.7
20260510013648 60 319 1.0 3.0 0.00 0.02 0.02 73 1009.6
20260510013148 60 307 0.0 2.0 0.00 0.02 0.02 71 1009.6
20260510012648 60 0 0.0 2.0 0.00 0.02 0.02 71 1009.6
20260510012147 60 0 0.0 1.0 0.00 0.02 0.02 71 1009.6
20260510011919 60 0 0.0 1.0 0.00 0.02 0.02 71 1009.5
20260510011148 61 0 0.0 2.0 0.00 0.02 0.02 70 1009.4
20260510010648 61 0 0.0 2.0 0.00 0.02 0.02 68 1009.3
20260510010149 61 306 0.0 2.0 0.00 0.02 0.02 68 1009.2
20260510005648 62 0 1.0 2.0 0.00 0.02 0.02 68 1009.3
20260510005412 62 0 0.0 2.0 0.00 0.02 0.02 67 1009.2
20260510004645 63 346 0.0 2.0 0.00 0.02 0.02 65 1009.0
20260510004145 64 0 0.0 1.0 0.00 0.02 0.02 64 1008.9
20260510003644 64 0 0.0 3.0 0.00 0.02 0.02 63 1008.8
20260510003144 65 0 0.0 3.0 0.00 0.02 0.02 61 1008.7
20260510002645 65 308 0.0 3.0 0.00 0.02 0.02 60 1008.6
20260510002144 66 0 0.0 2.0 0.00 0.02 0.02 59 1008.6
20260510001904 67 234 0.0 2.0 0.00 0.02 0.02 58 1008.5
20260510001142 67 0 1.0 4.0 0.00 0.02 0.02 57 1008.5
20260510000642 67 0 1.0 4.0 0.00 0.02 0.02 56 1008.4
20260510000143 67 136 1.0 4.0 0.00 0.02 0.02 56 1008.3
20260509235901 68 0 1.0 3.0 0.00 0.02 0.02 55 1008.2
20260509235143 68 0 1.0 5.0 0.00 0.02 0.02 54 1008.2
20260509234644 69 0 1.0 5.0 0.00 0.02 0.02 53 1008.1
20260509234359 69 295 2.0 5.0 0.00 0.02 0.02 52 1008.1
20260509233642 70 0 2.0 6.0 0.00 0.02 0.02 51 1008.1
20260509233141 70 283 3.0 6.0 0.00 0.02 0.02 51 1008.1
20260509232641 70 289 2.0 6.0 0.00 0.02 0.02 51 1008.1
20260509232141 70 282 2.0 6.0 0.00 0.02 0.02 52 1008.1
20260509231641 70 227 2.0 6.0 0.00 0.02 0.02 51 1008.1
20260509231409 70 284 2.0 5.0 0.00 0.02 0.02 51 1008.1
20260509230907 70 224 1.0 6.0 0.00 0.02 0.02 51 1008.1
20260509230141 70 0 2.0 6.0 0.00 0.02 0.02 51 1008.1
20260509225641 70 315 2.0 6.0 0.00 0.02 0.02 51 1008.1
20260509225141 70 0 2.0 7.0 0.00 0.02 0.02 51 1008.1
20260509224642 70 282 3.0 8.0 0.00 0.02 0.02 51 1008.1
20260509224142 70 240 3.0 8.0 0.00 0.02 0.02 50 1008.0
20260509223642 70 289 2.0 7.0 0.00 0.02 0.02 50 1008.2
20260509223142 71 293 3.0 8.0 0.00 0.02 0.02 49 1008.2
20260509222641 71 267 3.0 8.0 0.00 0.02 0.02 49 1008.2
20260509222138 71 261 3.0 7.0 0.00 0.02 0.02 49 1008.0
20260509221638 71 263 3.0 7.0 0.00 0.02 0.02 50 1008.2
20260509221138 71 280 3.0 12.0 0.00 0.02 0.02 51 1008.2
20260509220637 71 274 4.0 13.0 0.00 0.02 0.02 50 1008.1
20260509220134 71 299 4.0 13.0 0.00 0.02 0.02 49 1008.1
20260509215636 72 206 4.0 9.0 0.00 0.02 0.02 50 1008.1
20260509215135 72 183 4.0 9.0 0.00 0.02 0.02 50 1008.0
20260509214640 72 284 3.0 9.0 0.00 0.02 0.02 50 1008.0
20260509214139 71 242 3.0 10.0 0.00 0.02 0.02 49 1007.9
20260509213640 71 0 3.0 10.0 0.00 0.02 0.02 49 1008.0
20260509213409 71 252 3.0 9.0 0.00 0.02 0.02 50 1007.9
20260509212641 71 222 3.0 9.0 0.00 0.02 0.02 49 1007.9
20260509212134 71 298 3.0 11.0 0.00 0.02 0.02 51 1007.8
20260509211632 71 296 3.0 11.0 0.00 0.02 0.02 50 1007.9
20260509211129 70 18 2.0 9.0 0.00 0.02 0.02 51 1007.9
20260509210630 70 271 4.0 9.0 0.00 0.02 0.02 50 1007.9
20260509210130 69 289 4.0 10.0 0.00 0.02 0.02 50 1007.9
20260509205630 70 239 4.0 10.0 0.00 0.02 0.02 50 1007.8
20260509205130 70 288 4.0 9.0 0.00 0.02 0.02 50 1007.9
20260509204631 70 200 4.0 8.0 0.00 0.02 0.02 49 1007.9
20260509204130 70 298 3.0 10.0 0.00 0.02 0.02 49 1007.8
20260509203630 70 301 4.0 10.0 0.00 0.02 0.02 50 1007.5
20260509203354 70 304 4.0 10.0 0.00 0.02 0.02 49 1007.6
20260509202631 70 288 4.0 9.0 0.00 0.02 0.02 49 1007.6
20260509202131 69 281 5.0 10.0 0.00 0.02 0.02 49 1007.4
20260509201130 70 258 5.0 14.0 0.00 0.02 0.02 50 1007.6
20260509200632 70 268 5.0 11.0 0.00 0.02 0.02 47 1007.6
20260509200129 71 302 5.0 10.0 0.00 0.02 0.02 49 1007.5
20260509195628 71 309 5.0 10.0 0.00 0.02 0.02 48 1007.5
20260509195128 71 307 4.0 10.0 0.00 0.02 0.02 49 1007.7
20260509194628 71 302 5.0 13.0 0.00 0.02 0.02 47 1007.7
20260509194353 71 306 4.0 13.0 0.00 0.02 0.02 47 1007.7
20260509193128 71 151 4.0 10.0 0.00 0.02 0.02 47 1007.9
20260509192630 70 198 4.0 10.0 0.00 0.02 0.02 48 1007.9
20260509192128 70 294 4.0 11.0 0.00 0.02 0.02 49 1007.9
20260509191629 69 214 5.0 11.0 0.00 0.02 0.02 49 1008.0
20260509191126 69 264 5.0 10.0 0.00 0.02 0.02 50 1008.2
20260509190623 69 202 5.0 11.0 0.00 0.02 0.02 49 1008.1
20260509190124 70 296 5.0 11.0 0.00 0.02 0.02 48 1008.3
20260509185621 71 162 5.0 12.0 0.00 0.02 0.02 50 1008.2
20260509185125 71 184 4.0 12.0 0.00 0.02 0.02 47 1008.2
20260509184622 70 238 4.0 13.0 0.00 0.02 0.02 49 1008.2
20260509184343 68 296 5.0 13.0 0.00 0.02 0.02 49 1008.1
20260509183618 69 189 3.0 8.0 0.00 0.02 0.02 49 1008.4
20260509183118 69 247 3.0 11.0 0.00 0.02 0.02 48 1008.5
20260509182618 69 270 4.0 11.0 0.00 0.02 0.02 49 1008.5
20260509182114 69 276 5.0 10.0 0.00 0.02 0.02 48 1008.5
20260509181615 69 160 4.0 11.0 0.00 0.02 0.02 49 1008.5
20260509181339 68 246 4.0 12.0 0.00 0.02 0.02 50 1008.3
20260509180844 68 329 4.0 12.0 0.00 0.02 0.02 50 1008.3
20260509180114 68 291 4.0 12.0 0.00 0.02 0.02 50 1008.6
20260509175616 68 302 4.0 12.0 0.00 0.02 0.02 49 1008.7
20260509175113 69 275 4.0 9.0 0.00 0.02 0.02 50 1008.9
20260509174613 69 296 4.0 13.0 0.00 0.02 0.02 51 1008.8
20260509174110 69 43 4.0 13.0 0.00 0.02 0.02 52 1008.7
20260509173607 69 184 4.0 9.0 0.00 0.02 0.02 53 1008.8
20260509173107 69 232 5.0 10.0 0.00 0.02 0.02 53 1008.9
20260509172606 68 194 5.0 12.0 0.00 0.02 0.02 55 1009.0
20260509172111 67 302 5.0 12.0 0.00 0.02 0.02 55 1009.2
20260509171613 66 219 5.0 13.0 0.00 0.02 0.02 55 1009.3
20260509170943 67 276 4.0 9.0 0.00 0.02 0.02 54 1009.5
20260509165752 66 309 5.0 10.0 0.00 0.02 0.02 54 1009.4
20260509165252 66 346 4.0 10.0 0.00 0.02 0.02 54 1009.6
20260509165016 66 294 4.0 10.0 0.00 0.02 0.02 56 1009.3
20260509164252 65 260 4.0 10.0 0.00 0.02 0.02 58 1009.3
20260509163753 65 313 5.0 10.0 0.00 0.02 0.02 57 1009.2
20260509163250 64 212 4.0 11.0 0.00 0.02 0.02 59 1009.3
20260509162750 64 346 5.0 13.0 0.00 0.02 0.02 59 1009.5
20260509162248 64 269 6.0 13.0 0.00 0.02 0.02 58 1009.7
20260509161749 65 249 6.0 13.0 0.00 0.02 0.02 57 1009.7
20260509161248 65 210 6.0 13.0 0.00 0.02 0.02 58 1009.6
20260509160748 65 263 6.0 13.0 0.00 0.02 0.02 56 1009.5
20260509160249 65 296 5.0 10.0 0.00 0.02 0.02 57 1009.4
20260509155749 65 277 6.0 11.0 0.00 0.02 0.02 57 1009.4
20260509155249 64 230 6.0 11.0 0.00 0.02 0.02 57 1009.3
20260509155018 64 275 6.0 14.0 0.00 0.02 0.02 57 1009.2
20260509154249 64 286 5.0 14.0 0.00 0.02 0.02 57 1009.2
20260509154008 64 269 4.0 11.0 0.00 0.02 0.02 59 1009.5
20260509153515 64 328 4.0 11.0 0.01 0.02 0.02 60 1009.5
20260509152749 63 254 5.0 9.0 0.01 0.02 0.02 61 1009.5
20260509152243 63 295 4.0 12.0 0.01 0.02 0.02 60 1009.6
20260509152012 63 276 4.0 12.0 0.01 0.02 0.02 61 1009.7
20260509151245 63 225 4.0 11.0 0.02 0.02 0.02 60 1009.6
20260509150745 63 295 5.0 12.0 0.02 0.02 0.02 60 1009.7
20260509150244 64 167 5.0 12.0 0.02 0.02 0.02 59 1009.7
20260509145745 64 272 4.0 10.0 0.02 0.02 0.02 60 1009.3
20260509145244 63 169 3.0 8.0 0.02 0.02 0.02 61 1009.4
20260509144745 63 222 3.0 7.0 0.02 0.02 0.02 61 1009.5
20260509143745 62 288 5.0 9.0 0.02 0.02 0.02 62 1009.5
20260509143245 63 260 5.0 10.0 0.01 0.01 0.01 61 1009.4
20260509142745 63 254 5.0 11.0 0.01 0.01 0.01 62 1009.4
20260509142245 62 289 5.0 11.0 0.01 0.01 0.01 62 1009.2
20260509141745 62 308 5.0 10.0 0.01 0.01 0.01 63 1009.3
20260509141245 62 281 4.0 9.0 0.00 0.00 0.00 64 1009.2
20260509140742 61 323 4.0 9.0 0.00 0.00 0.00 66 1009.2
20260509140238 60 292 4.0 9.0 0.00 0.00 0.00 66 1009.5
20260509135238 60 312 4.0 9.0 0.00 0.00 0.00 67 1009.6
20260509134739 60 334 4.0 9.0 0.00 0.00 0.00 66 1009.8
20260509134239 60 300 4.0 9.0 0.00 0.00 0.00 66 1009.7
20260509133739 60 302 4.0 9.0 0.00 0.00 0.00 66 1009.7
20260509133239 60 260 4.0 7.0 0.00 0.00 0.00 67 1009.7
20260509132239 59 297 3.0 7.0 0.00 0.00 0.00 67 1009.9
20260509131739 59 294 3.0 7.0 0.00 0.00 0.00 67 1010.0
20260509131239 59 279 2.0 7.0 0.00 0.00 0.00 67 1010.0
20260509130739 59 311 2.0 6.0 0.00 0.00 0.00 68 1010.1
20260509130238 59 291 2.0 6.0 0.00 0.00 0.00 67 1010.1
20260509125734 59 324 2.0 6.0 0.00 0.00 0.00 68 1010.1
20260509125233 59 297 2.0 6.0 0.00 0.00 0.00 68 1010.1
20260509124951 59 304 2.0 6.0 0.00 0.00 0.00 69 1010.2
20260509123731 59 275 3.0 7.0 0.00 0.00 0.00 68 1010.2
20260509123233 58 338 3.0 9.0 0.00 0.00 0.00 68 1010.2
20260509122732 58 321 3.0 9.0 0.00 0.00 0.00 69 1010.2
20260509122232 58 293 2.0 6.0 0.00 0.00 0.00 69 1010.2
20260509121233 57 313 2.0 6.0 0.00 0.00 0.00 70 1010.1
20260509120956 57 318 2.0 6.0 0.00 0.00 0.00 70 1010.1
20260509120233 56 272 2.0 6.0 0.00 0.00 0.00 70 1010.1
20260509115732 56 279 2.0 4.0 0.00 0.00 0.00 70 1010.2
20260509115233 56 286 2.0 6.0 0.00 0.00 0.00 69 1010.1
20260509114228 56 297 2.0 5.0 0.00 0.00 0.00 69 1010.1
20260509113729 56 323 2.0 5.0 0.00 0.00 0.00 69 1010.1
20260509113227 55 311 2.0 5.0 0.00 0.00 0.00 69 1010.1
20260509112726 55 246 2.0 5.0 0.00 0.00 0.00 68 1010.1
20260509112222 55 319 2.0 5.0 0.00 0.00 0.00 68 1010.1
20260509111723 55 273 2.0 5.0 0.00 0.00 0.00 68 1010.1
20260509111223 55 249 2.0 5.0 0.00 0.00 0.00 68 1010.1
20260509110223 55 309 2.0 5.0 0.00 0.00 0.00 67 1010.1
20260509105723 55 280 1.0 4.0 0.00 0.00 0.00 67 1010.0
20260509104723 55 263 1.0 4.0 0.00 0.00 0.00 67 1009.9
20260509104223 55 0 2.0 3.0 0.00 0.00 0.00 66 1009.9
20260509103723 55 291 2.0 4.0 0.00 0.00 0.00 66 1009.9
20260509103223 55 318 2.0 4.0 0.00 0.00 0.00 65 1009.9
20260509102723 55 26 2.0 4.0 0.00 0.00 0.00 65 1010.0
20260509102222 55 273 2.0 4.0 0.00 0.00 0.00 65 1010.1
20260509101722 55 254 2.0 6.0 0.00 0.00 0.00 64 1010.0
20260509101222 56 307 2.0 6.0 0.00 0.00 0.00 64 1009.9
20260509100722 56 259 2.0 5.0 0.00 0.00 0.00 64 1010.0
20260509100223 56 291 2.0 6.0 0.00 0.00 0.00 64 1009.9
20260509095722 56 276 2.0 6.0 0.00 0.00 0.00 64 1009.9
20260509095222 56 274 3.0 6.0 0.00 0.00 0.00 63 1009.9
20260509094949 56 260 2.0 6.0 0.00 0.00 0.00 63 1009.9
20260509094222 56 289 2.0 5.0 0.00 0.00 0.00 64 1009.9
20260509093722 55 302 2.0 5.0 0.00 0.00 0.00 63 1009.8
20260509093223 55 265 2.0 5.0 0.00 0.00 0.00 63 1009.8
20260509092943 55 292 2.0 4.0 0.00 0.00 0.00 63 1009.9
20260509092218 55 244 2.0 5.0 0.00 0.00 0.00 63 1009.9
20260509091937 55 306 2.0 5.0 0.00 0.00 0.00 63 1009.9
20260509091218 55 250 1.0 3.0 0.00 0.00 0.00 63 1009.9
20260509090717 55 303 2.0 3.0 0.00 0.00 0.00 62 1010.1
20260509090218 55 0 2.0 4.0 0.00 0.00 0.00 62 1010.0
20260509085713 55 289 2.0 4.0 0.00 0.00 0.00 62 1010.0
20260509085217 54 313 1.0 5.0 0.00 0.00 0.00 62 1010.1
20260509084717 54 238 2.0 6.0 0.00 0.00 0.00 61 1010.0
20260509084444 54 251 2.0 6.0 0.00 0.00 0.00 61 1010.0
20260509083718 54 262 2.0 4.0 0.00 0.00 0.00 61 1010.1
20260509083437 54 309 2.0 4.0 0.00 0.00 0.00 60 1010.1
20260509082716 54 286 2.0 4.0 0.00 0.00 0.00 59 1010.1
20260509082217 54 239 1.0 4.0 0.00 0.00 0.00 59 1010.2
20260509081715 54 297 2.0 4.0 0.00 0.00 0.00 59 1010.2
20260509080211 55 296 2.0 5.0 0.00 0.00 0.00 57 1010.2
20260509075713 55 322 3.0 6.0 0.00 0.00 0.00 56 1010.2
20260509075212 55 274 2.0 6.0 0.00 0.00 0.00 56 1010.3
20260509074931 55 291 2.0 5.0 0.00 0.00 0.00 55 1010.3
20260509074212 55 319 2.0 5.0 0.00 0.00 0.00 55 1010.3
20260509073709 55 236 2.0 5.0 0.00 0.00 0.00 55 1010.3
20260509073207 55 266 1.0 3.0 0.00 0.00 0.00 55 1010.4
20260509072708 55 45 2.0 4.0 0.00 0.00 0.00 55 1010.5
20260509072208 55 315 2.0 5.0 0.00 0.00 0.00 55 1010.6
20260509071707 55 278 2.0 5.0 0.00 0.00 0.00 55 1010.6
20260509071207 55 295 1.0 4.0 0.00 0.00 0.00 55 1010.6
20260509070708 55 283 1.0 5.0 0.00 0.00 0.00 55 1010.7
20260509070208 55 0 1.0 5.0 0.00 0.00 0.00 55 1010.7
20260509065707 55 243 1.0 3.0 0.00 0.00 0.00 55 1010.7
20260509065206 55 326 1.0 3.0 0.00 0.00 0.00 55 1010.7
20260509064707 55 0 1.0 3.0 0.00 0.00 0.00 54 1010.8
20260509064207 55 0 1.0 4.0 0.00 0.00 0.00 54 1010.9
20260509063703 55 164 1.0 4.0 0.00 0.00 0.00 54 1011.0
20260509063427 55 302 1.0 4.0 0.00 0.00 0.00 54 1011.1
20260509062701 55 299 1.0 4.0 0.00 0.00 0.00 53 1011.1
20260509062201 55 44 1.0 4.0 0.00 0.00 0.00 53 1011.1
20260509061657 55 288 1.0 6.0 0.00 0.00 0.00 53 1011.1
20260509061157 55 282 1.0 6.0 0.00 0.00 0.00 53 1011.1
20260509060657 56 33 1.0 6.0 0.00 0.00 0.00 52 1011.0
20260509060420 56 68 2.0 6.0 0.00 0.00 0.00 51 1011.0
20260509055931 56 268 2.0 6.0 0.00 0.00 0.00 51 1011.1
20260509055157 56 243 2.0 5.0 0.00 0.00 0.00 50 1011.1
20260509054658 57 320 2.0 6.0 0.00 0.00 0.00 49 1011.2
20260509054420 57 244 2.0 6.0 0.00 0.00 0.00 48 1011.3